Regional Weather Roundup
Issued by NWS State College, PA

Home | Current Version | Previous Version | Graphics & Text | Print | Product List | Glossary Off
Versions: 1 2 3 4 5 6 7 8 9 10 11 12 13 14 15 16 17 18 19 20 21 22 23 24 25 26 27 28 29 30 31 32 33 34 35 36 37 38 39 40 41 42 43 44 45 46 47 48 49 50

000
ASUS41 KCTP 291510
RWRCTP

REGIONAL WEATHER ROUNDUP
NATIONAL WEATHER SERVICE STATE COLLEGE PA
1100 AM EDT WED JUL 29 2015

Note: "fair" indicates few or no clouds below 12,000 feet with no
significant weather and/or obstructions to visibility.

* = STATION THAT DOES NOT REPORT PRECIPITATION /E.G. RAIN...SNOW...ETC/
    THUNDER OR FOG.

PAZ002>004-007>009-013>016-020>023-029>032-291600-
WESTERN PENNSYLVANIA

CITY           SKY/WX    TMP DP  RH WIND       PRES   REMARKS
ERIE           MOSUNNY   86  68  54 S7        29.98S
MEADVILLE      SUNNY     82  67  60 S6        30.03F
FRANKLIN*      SUNNY     81  66  61 SE8       30.04F
NEW CASTLE     FAIR      85  73  67 CALM      30.02F
BEAVER COUNTY  SUNNY     82  70  65 S3        30.03S
BUTLER*        MOSUNNY   81  70  69 S3        30.05S
PITTSBURGH INT PTSUNNY   83  69  62 SE6       30.02S
PITTSBURGH     MOSUNNY   83  66  56 VRB3      30.02S
INDIANA*       SUNNY     82  70  65 SE6       30.07S
LATROBE        PTSUNNY   82  68  61 VRB5      30.03S
WASHINGTON CO* NOT AVBL
$$

PAZ004>006-010>012-017>019-024>028-033>037-041-042-045-046-049>053-291600-
CENTRAL PENNSYLVANIA

CITY           SKY/WX    TMP DP  RH WIND       PRES   REMARKS
BRADFORD       MOSUNNY   79  60  52 VRB6      30.08S
DUBOIS         MOSUNNY   79  66  64 SE6       30.07R
CLEARFIELD     MOSUNNY   77  66  68 VRB3      30.07S
JOHNSTOWN      MOSUNNY   78  66  66 SE5       30.09R
ALTOONA        MOSUNNY   80  68  66 E6        30.07S
STATE COLLEGE  SUNNY     75  66  73 CALM      30.06R
WILLIAMSPORT   PTSUNNY   79  65  62 CALM      30.02R
SELINSGROVE    MOSUNNY   83  68  60 CALM      30.02S
FT INDIANTOWN  MOSUNNY   83  72  69 S3        30.02S
CAPITAL CITY   MOSUNNY   85  69  58 S5        30.01S
HARRISBURG     PTSUNNY   85  71  63 SE5       30.01S
YORK           MOSUNNY   82  74  76 CALM      30.03S
$$

PAZ038>040-043-044-047-048-054-055-060>062-067>071-291600-
EASTERN PENNSYLVANIA

CITY           SKY/WX    TMP DP  RH WIND       PRES   REMARKS
SCRANTON       MOSUNNY   85  66  53 NW3       30.04S
MOUNT POCONO   MOSUNNY   82  60  47 VRB3      30.09R
ALLENTOWN      SUNNY     87  68  52 CALM      30.01S
QUAKERTOWN*    SUNNY     90  64  43 S6        30.02S
READING        MOSUNNY   87  68  52 CALM      30.00S
LANCASTER      SUNNY     84  70  62 SE7       30.02S
COATESVILLE    MOSUNNY   82  73  74 CALM      30.04F
POTTSTOWN      MOSUNNY   84  72  67 VRB5      30.02F
BLUE BELL      SUNNY     88  70  55 SW5       30.01S
DOYLESTOWN     SUNNY     85  66  53 VRB3      30.00F
WILLOW GROVE   NOT AVBL
NORTH PHILA    MOSUNNY   90  67  46 SE7       30.01F
PHILADELPHIA   PTSUNNY   86  72  62 SW7       30.01S
$$


USA.gov is the U.S. government's official web portal to all federal, state and local government web resources and services.